Simultaneous Nadir Overpasses (SNOs) Predictions

Prediction of SNOs between METOP-A and NOAA-19 Satellite Orbit:

Table of predicted SNOs for the next 14.0 days since TLE Epoch: 5/1/2021
Index Date (METOP-A) Time (METOP-A) Lat,Lon (METOP-A) SZA (METOP-A ) Date (NOAA-19) Time (NOAA-19) Lat,Lon (NOAA-19) SZA (NOAA-19 ) Distance(km) Time Diff (sec)
1 05/11/2021 15:55:19 80.86, -48.90 62.93 05/11/2021 15:54:08 80.85, -48.91 62.91 1.08 71
2 05/11/2021 16:46:01 -80.85, 118.24 117.10 05/11/2021 16:45:06 -80.85, 118.09 117.11 2.60 55
3 05/11/2021 17:36:41 80.85, -74.39 62.90 05/11/2021 17:36:08 80.85, -74.27 62.90 2.07 33
4 05/11/2021 18:27:22 -80.86, 93.10 117.10 05/11/2021 18:27:05 -80.86, 93.10 117.11 0.98 17
5 05/11/2021 19:18:02 80.87, -99.53 62.90 05/11/2021 19:18:08 80.86, -99.63 62.89 2.20 6
6 05/11/2021 20:08:44 -80.85, 67.61 117.13 05/11/2021 20:09:05 -80.86, 67.74 117.12 2.20 21
7 05/11/2021 20:59:24 80.86,-125.01 62.87 05/11/2021 21:00:08 80.86,-124.99 62.88 0.52 44



Historial Predications of SNOs between METOP-A and NOAA-19
